DW7572 Weather Reports


time (UTC)temp
C
wind
direction
speed
KPH
gust
KPH
rain 1hr
cm
rain 24hr
cm
rain mn
cm
humidity
%
barometer
mb
20260504200038 16 315 38.6 59.5 0.00 0.00 0.00 37 1003.0
20260504193017 16 315 40.2 57.9 0.00 0.00 0.00 36 1002.5
20260504190057 16 315 41.8 59.5 0.00 0.00 0.00 30 1002.0
20260504183037 16 315 38.6 57.9 0.00 0.00 0.00 34 1001.7
20260504180017 16 315 38.6 54.7 0.00 0.00 0.00 38 1001.5
20260504173016 16 315 35.4 53.1 0.00 0.00 0.00 40 1001.2
20260504050017 12 248 8.0 12.9 0.00 0.00 0.00 53 1002.4
20260504043016 12 225 6.4 12.9 0.00 0.00 0.00 52 1002.8
20260504040017 12 225 4.8 9.7 0.00 0.00 0.00 52 1003.3
20260504033016 13 203 4.8 9.7 0.00 0.00 0.00 49 1003.9
20260504030016 14 203 4.8 8.0 0.00 0.00 0.00 46 1004.4
20260504023016 16 225 3.2 8.0 0.00 0.00 0.00 40 1004.5
20260504020016 17 0.0 1.6 0.00 0.00 0.00 35 1004.7
20260504013017 18 293 1.6 4.8 0.00 0.00 0.00 32 1004.8
20260504010016 20 293 6.4 16.1 0.00 0.00 0.00 30 1004.8
20260504003038 21 293 14.5 24.1 0.00 0.00 0.00 28 1005.1
20260504000118 21 315 17.7 30.6 0.00 0.00 0.00 27 1005.7
20260503233018 21 315 19.3 35.4 0.00 0.00 0.00 27 1005.8
20260503230018 21 315 22.5 35.4 0.00 0.00 0.00 27 1006.0
20260503223037 21 293 20.9 35.4 0.00 0.00 0.00 29 1006.2
20260503220018 22 315 19.3 38.6 0.00 0.00 0.00 32 1006.3
20260503213017 21 315 25.7 43.5 0.00 0.00 0.00 30 1006.4
20260503210039 21 315 24.1 41.8 0.00 0.00 0.00 31 1006.8
20260503203018 21 315 30.6 43.5 0.00 0.00 0.00 33 1007.2